Temperature
13 13 13 13 13 14 14 14 14 14 14 14 14 14 14 15 15 15 15 15 15 15 15 15 15 15 16 16 16 16 16 16 15 15 15 15 15 15
13 13 13 13 13 13 14 14 14 14 14 14 14 14 14 14 15 15 15 15 15 15 15 15 15 15 15 15 15 15 15 15 15 15 15 15 15 15
13 13 13 13 13 13 13 14 14 14 14 14 14 14 14 14 14 14 14 14 15 15 15 15 15 15 15 15 15 15 15 15 15 15 15 15 15 15
13 13 13 13 13 13 13 13 13 13 14 14 14 14 14 14 14 14 14 14 14 14 14 14 14 14 14 14 15 15 15 15 15 15 15 15 15 15
13 13 13 13 13 13 13 13 13 13 13 13 13 13 13 13 14 14 14 14 14 14 14 14 14 14 14 14 14 14 14 14 14 14 14 14 14 14
13 13 13 13 13 13 13 13 13 13 13 13 13 13 13 13 13 13 13 13 13 13 14 14 14 14 14 14 14 14 14 14 14 14 14 14 14 14
13 13 13 13 13 13 13 13 13 13 13 13 13 13 13 13 13 13 13 13 13 13 13 13 14 14 14 14 14 14 14 14 14 14 14 14 14 14
13 13 13 13 13 13 13 13 13 13 13 13 13 13 13 13 13 13 13 13 13 13 13 13 13 13 13 14 13 13 13 13 13 13 13 13 13 13
13 13 13 13 13 13 13 13 13 13 13 13 13 13 13 13 13 13 12 13 13 13 13 13 13 13 13 13 13 13 13 13 13 13 13 13 13 13
13 13 13 13 13 13 13 13 13 13 13 12 12 12 12 12 12 12 12 12 12 12 12 12 13 13 13 13 13 13 13 13 13 13 13 12 12 12
13 12 12 12 12 12 12 12 12 12 12 12 12 12 12 12 12 12 12 12 12 12 12 12 12 12 13 13 13 13 12 12 12 12 12 12 12 12
13 12 12 12 12 12 12 12 12 12 12 12 12 12 12 12 12 12 12 12 12 12 12 12 12 12 12 12 12 12 12 12 12 12 12 12 12 12
13 12 12 12 12 12 12 12 12 12 12 12 12 12 12 12 12 12 12 11 11 11 11 11 11 11 11 11 12 12 12 12 12 12 12 12 11 11
13 12 12 12 12 12 12 12 12 12 12 12 12 12 12 11 11 11 11 11 11 11 11 11 11 11 11 11 11 11 11 11 11 11 11 11 11 11
12 12 12 12 12 12 12 11 11 11 11 11 11 11 11 11 11 11 11 11 11 10 10 10 10 10 10 10 10 10 10 11 11 11 11 11 11 11
12 12 11 11 11 11 11 11 11 11 11 11 11 11 10 10 10 10 10 10 10 10 10 10 10 10 10 10 10 10 10 10 10 10 10 10 10 10
12 11 11 11 11 11 11 11 11 10 10 10 10 10 10 10 10 10 10 10 10 10 10 10 10 9 9 9 9 9 9 9 9 9 9 10 10 10
11 11 11 11 10 10 10 10 10 10 10 10 10 10 9 9 9 9 9 9 9 9 9 9 9 9 9 9 8 8 8 8 8 8 8 8 9 9
11 11 11 10 10 10 10 10 10 9 9 9 9 9 9 9 9 8 8 8 8 8 8 8 8 8 8 8 8 7 7 7 7 8 8 8 8 8
11 10 10 10 10 9 9 9 9 9 9 8 8 8 8 8 8 7 7 7 7 7 7 7 7 6 6 6 6 6 6 6 6 7 7 7 7 7
10 10 10 9 9 9 9 8 8 8 8 8 8 7 7 7 7 7 6 6 6 6 6 6 5 5 5 5 5 6 6 6 5 5 5 6 6 6
10 10 9 9 9 8 8 8 8 8 7 7 7 7 6 6 6 6 6 5 5 5 5 5 5 5 5 5 4 5 5 5 5 5 5 4 4 4
9 9 9 8 8 8 7 7 7 7 7 6 6 6 6 6 5 5 5 5 4 4 4 4 4 4 4 3 3 3 4 4 4 5 5 5 4 4
Wind_Speed
1 1 1 1 1 2 3 3 4 2 1 1 1 1 1 1 4 4 4 6 7 7 8 9 9 9 9 9 9 9 9 10 10 10 11 12 12 12
0 1 1 1 1 1 2 2 3 3 2 1 1 1 1 1 2 3 4 5 7 8 8 8 9 9 9 9 9 9 9 10 10 10 10 11 11 12
1 1 0 1 1 1 1 2 2 3 2 1 0 0 0 1 0 1 2 3 5 7 8 9 8 9 9 9 10 10 10 10 10 11 11 10 11 11
0 1 0 1 2 1 1 1 1 2 3 2 0 0 0 1 1 1 1 2 3 6 8 8 9 9 9 9 9 10 10 10 10 10 10 10 11 11
1 1 1 2 1 1 2 1 1 1 2 3 1 0 0 0 1 0 0 0 1 4 6 8 9 9 9 9 9 9 10 10 11 11 11 11 11 11
0 1 1 2 2 2 2 2 2 2 2 2 1 0 0 1 1 0 1 1 1 1 2 4 6 7 8 8 9 10 10 10 11 11 11 11 11 12
1 1 0 1 2 3 2 3 3 2 2 1 1 0 0 0 0 0 0 1 1 1 1 1 2 2 4 6 8 9 10 10 11 11 11 11 11 11
1 1 1 1 0 2 3 4 5 4 3 2 1 1 2 2 1 1 1 0 2 1 0 2 1 3 3 4 6 8 8 9 10 10 10 11 11 12
1 1 1 1 1 1 1 1 2 3 5 5 3 3 3 3 2 1 2 2 3 2 1 2 2 3 3 5 6 7 8 9 9 9 10 10 11 12
1 1 0 1 1 2 2 1 0 1 2 2 4 4 3 3 4 3 3 1 2 1 1 1 1 2 2 3 5 5 6 6 7 8 9 10 10 11
1 0 1 0 1 2 3 2 0 2 2 2 2 2 3 2 2 2 2 1 1 2 0 1 1 2 2 3 3 4 4 5 6 7 8 9 9 10
1 2 1 1 2 2 3 3 1 1 1 1 1 2 1 1 0 3 3 2 1 1 1 1 1 1 2 2 2 2 3 4 6 7 8 9 9 6
1 1 1 2 2 3 3 2 2 1 1 1 1 2 2 2 1 0 2 3 2 2 2 1 1 0 1 2 3 2 2 2 3 4 7 9 8 6
2 1 1 2 4 4 3 3 3 3 2 2 2 2 1 2 2 1 1 1 2 2 1 1 1 1 1 1 3 3 2 2 2 3 4 6 7 8
2 2 3 4 4 4 5 5 4 3 3 3 2 1 1 1 2 2 2 2 3 4 3 2 1 1 1 2 2 2 2 3 2 3 3 3 3 3
2 2 4 5 4 4 4 4 3 3 3 2 1 1 2 2 3 2 2 2 2 3 5 6 3 0 1 2 2 2 2 2 3 3 4 4 4 4
4 3 3 2 3 2 3 3 3 3 3 2 2 2 2 3 3 3 2 3 2 2 4 4 5 3 1 1 0 2 2 2 3 3 3 4 4 4
6 3 2 2 2 2 2 2 2 2 2 2 2 2 2 2 3 3 3 3 3 3 3 4 4 4 3 3 1 1 2 3 4 4 3 4 5 5
5 4 3 3 3 2 2 2 1 1 1 2 2 2 2 2 3 3 3 3 3 2 3 3 3 3 2 3 4 4 3 4 4 4 4 4 5 6
4 4 4 4 3 3 3 2 2 2 2 2 2 2 2 3 3 2 2 2 1 2 2 2 2 2 1 3 3 4 5 4 4 5 5 5 5 7
4 4 4 4 4 3 3 3 3 3 2 2 2 2 2 3 2 2 2 2 2 1 2 2 4 5 2 1 3 4 4 6 6 4 5 5 6 5
5 5 4 4 4 4 4 4 3 3 3 2 2 2 2 2 2 2 1 1 1 1 1 3 4 3 2 1 3 5 6 6 7 8 7 6 4 4
6 6 5 5 4 4 4 4 4 3 3 2 2 2 2 1 1 1 0 0 0 1 2 2 3 2 2 2 3 4 6 7 5 6 6 9 11 13
Wind_Direction
195 189 192 234 193 175 157 152 149 146 240 265 296 303 304 185 177 172 190 205 205 208 210 211 212 209 211 216 221 227 228 225 224 227 231 232 230 230
164 163 209 209 132 127 142 142 145 154 182 233 239 242 256 226 196 185 201 208 208 213 216 213 216 215 216 220 224 227 229 227 226 229 232 234 234 234
58 130 206 155 116 109 116 125 136 142 162 254 299 283 185 181 48 196 209 206 212 216 219 218 222 221 221 224 226 227 227 227 228 233 236 236 237 237
195 103 57 129 110 100 113 125 142 156 157 170 275 356 350 200 187 208 240 218 217 226 225 225 228 227 227 229 229 228 226 228 230 233 236 238 242 243
186 159 170 131 124 121 126 133 141 136 143 155 187 290 347 72 90 85 60 327 252 236 228 229 233 234 232 231 231 229 230 233 234 235 237 239 243 245
170 158 173 162 172 160 155 159 139 117 125 137 146 86 13 0 85 80 355 328 287 264 242 231 238 239 238 235 233 232 233 235 236 237 238 240 241 244
62 64 121 173 179 169 159 163 147 132 123 131 144 85 354 30 216 221 248 304 294 247 273 261 243 247 249 247 240 235 234 237 238 240 241 243 245 248
85 31 7 20 173 181 166 158 157 156 163 162 173 187 232 224 208 196 177 22 297 277 241 276 232 248 247 244 244 240 238 237 240 242 244 245 246 248
118 66 10 6 36 120 135 128 162 172 173 168 178 207 210 213 188 200 203 202 235 255 174 276 272 261 258 254 252 247 243 242 245 245 248 249 249 251
121 153 143 330 319 158 144 122 191 253 224 187 189 212 221 218 198 197 201 221 290 295 164 229 280 268 276 269 261 244 246 253 253 254 257 257 257 257
337 334 118 16 359 126 129 139 72 316 282 190 197 221 224 212 178 131 123 111 328 307 302 181 279 293 294 291 293 277 264 267 266 263 268 271 268 265
2 354 13 45 29 97 132 144 157 289 343 19 10 1 358 360 120 166 169 164 182 273 277 170 284 347 324 308 303 327 306 291 287 280 284 283 277 264
158 319 323 17 51 83 119 145 183 179 109 78 44 25 24 17 5 21 175 171 173 229 251 164 201 189 239 302 315 303 298 299 303 296 294 290 284 261
180 222 249 78 76 72 81 80 88 91 87 76 64 38 15 347 329 336 42 132 145 192 241 146 179 201 203 269 289 309 308 300 296 286 302 302 292 280
171 151 113 87 72 60 59 67 75 82 88 88 80 16 321 327 359 13 25 50 55 43 38 48 146 206 193 223 259 285 303 303 298 296 301 289 276 280
138 104 87 76 72 62 54 52 63 85 102 102 93 36 32 44 40 34 38 29 38 7 8 16 13 93 230 256 241 273 285 298 317 309 301 293 288 284
132 92 76 71 67 53 48 48 51 61 70 63 73 67 56 53 38 28 44 56 62 20 357 354 354 353 277 207 294 308 310 306 300 305 306 301 290 281
128 123 132 132 132 128 110 77 57 59 61 77 79 79 76 74 60 44 52 64 60 34 13 357 359 5 7 355 352 323 326 313 311 311 300 295 295 296
137 150 158 163 159 150 137 123 107 73 75 83 82 78 81 75 70 59 54 57 53 38 15 9 19 31 9 329 322 9 348 322 322 318 303 290 289 296
158 164 170 168 161 155 147 135 119 94 81 80 78 75 78 82 77 65 58 57 45 28 13 10 13 7 291 276 289 314 339 334 325 317 309 300 290 291
173 167 165 161 159 154 150 140 129 118 107 100 92 88 89 94 90 78 66 51 47 27 2 332 304 310 291 333 323 316 314 324 320 309 313 315 315 316
170 167 163 158 155 151 144 135 125 119 113 107 107 102 95 100 103 91 80 66 23 332 311 310 323 342 7 340 309 306 310 316 317 316 310 307 307 305
172 166 162 158 152 146 142 138 135 133 130 127 123 120 114 108 107 106 98 74 355 328 324 325 332 335 317 297 296 302 308 313 317 320 311 308 304 299
Height
1483 1484 1484 1485 1485 1486 1487 1488 1490 1490 1492 1493 1493 1494 1496 1497 1499 1500 1501 1503 1505 1506 1508 1510 1511 1513 1514 1516 1517 1519 1520 1521 1523 1524 1525 1526 1527 1527
1483 1483 1483 1484 1484 1485 1486 1487 1488 1490 1490 1491 1492 1493 1494 1495 1496 1497 1499 1501 1502 1504 1505 1507 1508 1510 1511 1512 1513 1515 1516 1517 1519 1520 1521 1522 1522 1523
1483 1483 1483 1483 1484 1484 1485 1486 1487 1488 1489 1490 1491 1492 1493 1494 1494 1495 1497 1498 1500 1501 1502 1504 1505 1506 1507 1509 1510 1511 1512 1513 1514 1515 1516 1517 1518 1519
1483 1483 1483 1483 1483 1484 1484 1485 1486 1487 1488 1488 1489 1491 1491 1492 1493 1494 1495 1496 1497 1498 1499 1501 1502 1503 1504 1505 1506 1507 1508 1509 1510 1511 1512 1512 1513 1514
1482 1482 1483 1483 1483 1483 1484 1485 1485 1486 1487 1487 1488 1489 1490 1491 1491 1492 1493 1494 1495 1495 1497 1498 1499 1499 1500 1501 1502 1503 1504 1505 1506 1506 1507 1508 1508 1509
1482 1482 1482 1482 1483 1483 1483 1484 1485 1485 1486 1487 1487 1488 1489 1489 1490 1490 1491 1492 1493 1493 1494 1495 1495 1496 1497 1498 1498 1499 1500 1501 1501 1502 1503 1503 1504 1504
1482 1482 1482 1482 1482 1483 1483 1483 1484 1484 1485 1485 1486 1487 1488 1488 1489 1489 1489 1490 1490 1491 1491 1492 1492 1493 1493 1494 1495 1496 1496 1497 1497 1498 1498 1499 1499 1500
1481 1481 1481 1482 1482 1482 1482 1483 1483 1484 1484 1485 1485 1486 1486 1487 1487 1487 1488 1488 1488 1489 1488 1489 1489 1490 1490 1491 1491 1492 1493 1493 1494 1494 1494 1494 1495 1495
1481 1481 1481 1481 1481 1481 1481 1482 1482 1483 1483 1484 1484 1484 1484 1485 1485 1485 1486 1486 1486 1486 1486 1486 1486 1486 1487 1487 1488 1489 1489 1489 1489 1490 1490 1490 1490 1490
1480 1480 1480 1480 1480 1480 1480 1480 1481 1481 1482 1482 1483 1483 1483 1483 1483 1484 1484 1484 1484 1484 1484 1483 1484 1484 1484 1485 1485 1485 1485 1485 1485 1485 1485 1485 1485 1485
1480 1479 1479 1479 1478 1479 1479 1479 1480 1480 1480 1481 1481 1481 1481 1482 1482 1482 1482 1482 1482 1482 1482 1482 1481 1481 1481 1482 1482 1482 1482 1482 1481 1481 1481 1481 1481 1480
1479 1478 1478 1477 1477 1478 1478 1478 1478 1478 1479 1479 1479 1479 1480 1480 1480 1480 1480 1480 1480 1480 1480 1480 1479 1479 1479 1479 1479 1479 1478 1478 1477 1477 1477 1476 1476 1475
1477 1477 1477 1476 1476 1476 1476 1476 1476 1476 1477 1477 1477 1477 1477 1477 1478 1478 1478 1478 1478 1478 1478 1477 1477 1477 1477 1476 1475 1475 1475 1474 1473 1473 1472 1472 1471 1470
1476 1476 1475 1475 1475 1475 1475 1474 1474 1474 1475 1475 1475 1475 1475 1475 1475 1475 1475 1475 1475 1476 1475 1475 1475 1474 1474 1473 1472 1472 1471 1470 1469 1468 1468 1467 1467 1466
1474 1474 1474 1474 1473 1473 1473 1473 1473 1473 1473 1473 1473 1473 1473 1473 1473 1473 1473 1473 1473 1473 1472 1472 1472 1471 1471 1470 1469 1468 1467 1466 1466 1464 1464 1463 1462 1461
1472 1472 1472 1472 1472 1472 1472 1471 1471 1471 1471 1471 1471 1471 1471 1471 1471 1471 1471 1470 1470 1470 1470 1470 1469 1469 1468 1467 1466 1465 1464 1463 1462 1461 1459 1458 1457 1456
1470 1470 1470 1470 1470 1470 1470 1469 1470 1470 1470 1469 1469 1469 1469 1469 1468 1468 1468 1468 1467 1467 1467 1466 1466 1465 1465 1464 1462 1461 1460 1459 1458 1456 1455 1453 1452 1451
1468 1467 1467 1467 1468 1467 1467 1467 1468 1468 1468 1467 1467 1467 1467 1466 1466 1466 1466 1465 1464 1464 1463 1463 1462 1462 1461 1460 1460 1458 1456 1455 1453 1452 1450 1448 1446 1446
1464 1464 1465 1465 1465 1465 1465 1465 1465 1465 1465 1465 1465 1465 1465 1464 1464 1463 1463 1463 1462 1461 1460 1459 1459 1458 1457 1456 1456 1455 1453 1450 1449 1447 1445 1443 1441 1439
1460 1461 1461 1462 1462 1462 1463 1463 1463 1463 1463 1463 1462 1462 1462 1462 1462 1461 1461 1460 1459 1459 1458 1457 1456 1455 1454 1453 1451 1450 1449 1447 1444 1442 1440 1438 1436 1434
1456 1457 1458 1458 1459 1459 1460 1460 1460 1460 1460 1460 1460 1460 1459 1459 1459 1458 1458 1457 1457 1456 1455 1454 1453 1452 1451 1450 1448 1446 1445 1444 1442 1439 1436 1433 1430 1427
1452 1453 1454 1455 1455 1456 1456 1457 1457 1457 1457 1457 1457 1457 1456 1456 1456 1455 1455 1454 1454 1453 1452 1451 1450 1449 1448 1446 1444 1442 1440 1439 1437 1436 1434 1431 1427 1423
1447 1448 1449 1450 1451 1452 1453 1453 1453 1454 1454 1454 1454 1453 1453 1453 1453 1452 1452 1451 1450 1449 1448 1447 1446 1445 1444 1442 1440 1438 1436 1434 1431 1429 1428 1426 1424 1422